DLH731 VRMM-EDDF

Flight info

Callsign DLH731
Flight time N/A
Altitude 32000
Route MUNUT1B MUNUT R329 POMAN P570 OTABI/N0497F330 A474 BBB G208 APANO/N0499F340 G208 KE B210 NH/N0502F330 G326 REKOR/N0495F350 G326 ZB/N0492F360 L750 RANAH A846 ABDAN/N0479F380 A909 RODAR N644 ADEKI DCT BADIR DCT LAGAS DCT NOLGA UG261 TBN UM11 CRM UL746 ODERO/N0473F400 DCT OPT DCT ULMIN DCT DEGET DCT ABETI DCT PEROL DCT SUBEN DCT AKINI T161 DEBHI DEBHI1C
Aircraft A343/H-SDE2E3FGHIJ4J5M1RWXY/LB1D1

Departure

Time 2026-04-29 10:54
Airport Velana International Airport (VRMM)

Arrival

Time N/A
Airport Frankfurt Main Airport (EDDF)
Time Latitude Longitude Altitude Speed Heading
2026-04-29 10:41 4.18454 73.52801 14 ft 0 kts 229°
2026-04-29 10:47 4.18453 73.52800 14 ft 0 kts 223°
2026-04-29 10:47 4.18447 73.52801 14 ft 1 kts 186°
2026-04-29 10:48 4.18442 73.52807 14 ft 2 kts 137°
2026-04-29 10:48 4.18443 73.52824 14 ft 4 kts 82°
2026-04-29 10:48 4.18460 73.52864 14 ft 9 kts 66°
2026-04-29 10:48 4.18503 73.52921 14 ft 12 kts 33°
2026-04-29 10:49 4.18593 73.52925 15 ft 15 kts 356°
2026-04-29 10:49 4.18710 73.52921 15 ft 19 kts 359°
2026-04-29 10:49 4.18852 73.52919 15 ft 22 kts 359°
2026-04-29 10:49 4.19017 73.52917 15 ft 25 kts 359°
2026-04-29 10:50 4.19201 73.52913 15 ft 28 kts 358°
2026-04-29 10:50 4.19406 73.52909 14 ft 31 kts 360°
2026-04-29 10:50 4.19628 73.52907 14 ft 33 kts 358°
2026-04-29 10:50 4.19864 73.52901 14 ft 35 kts 358°
2026-04-29 10:51 4.20105 73.52899 14 ft 34 kts 359°
2026-04-29 10:51 4.20332 73.52896 14 ft 32 kts 359°
2026-04-29 10:51 4.20547 73.52892 14 ft 30 kts 358°
2026-04-29 10:51 4.20749 73.52886 14 ft 28 kts
2026-04-29 10:52 4.20934 73.52919 15 ft 27 kts 14°
2026-04-29 10:52 4.21108 73.52969 14 ft 25 kts 14°
2026-04-29 10:52 4.21254 73.53033 14 ft 18 kts 65°
2026-04-29 10:52 4.21229 73.53095 14 ft 8 kts 148°
2026-04-29 10:53 4.21149 73.53103 14 ft 19 kts 185°
2026-04-29 10:53 4.20848 73.53090 17 ft 68 kts 180°
2026-04-29 10:53 4.20670 73.53092 16 ft 83 kts 178°
2026-04-29 10:53 4.19295 73.53101 21 ft 150 kts 180°
2026-04-29 10:54 4.18200 73.53086 271 ft 163 kts 181°
2026-04-29 10:54 4.17034 73.53068 636 ft 170 kts 182°
2026-04-29 10:54 4.15842 73.53084 1035 ft 173 kts 178°
2026-04-29 10:54 4.14681 73.53548 1251 ft 194 kts 141°
2026-04-29 10:55 4.13918 73.54736 1426 ft 214 kts 114°
2026-04-29 10:55 4.13563 73.56282 1460 ft 244 kts 88°
2026-04-29 10:55 4.14140 73.57931 1650 ft 264 kts 49°
2026-04-29 10:55 4.15626 73.59016 2085 ft 270 kts 24°
2026-04-29 10:56 4.17235 73.59968 2685 ft 274 kts 31°
2026-04-29 10:56 4.18872 73.60973 3306 ft 277 kts 29°
2026-04-29 10:56 4.20570 73.61923 3935 ft 280 kts 27°
2026-04-29 10:56 4.22317 73.62801 4585 ft 281 kts 24°
2026-04-29 10:57 4.24119 73.63576 5197 ft 283 kts 16°
2026-04-29 10:57 4.26045 73.63989 5763 ft 284 kts
2026-04-29 10:57 4.28020 73.64155 6375 ft 285 kts
2026-04-29 10:57 4.30009 73.64255 6942 ft 288 kts
2026-04-29 10:58 4.32024 73.64336 7495 ft 291 kts
2026-04-29 10:58 4.34056 73.64408 8061 ft 293 kts
2026-04-29 10:58 4.36103 73.64478 8634 ft 296 kts
2026-04-29 10:58 4.38172 73.64546 9202 ft 298 kts
2026-04-29 10:59 4.40260 73.64614 9735 ft 302 kts
2026-04-29 10:59 4.42385 73.64683 10109 ft 311 kts
2026-04-29 10:59 4.44598 73.64756 10320 ft 325 kts
2026-04-29 10:59 4.46904 73.64800 10517 ft 339 kts
2026-04-29 11:00 4.49312 73.64790 10701 ft 352 kts
2026-04-29 11:00 4.51778 73.64776 10881 ft 365 kts
2026-04-29 11:00 4.54394 73.64766 11057 ft 377 kts
2026-04-29 11:00 4.57010 73.64761 11298 ft 385 kts
2026-04-29 11:01 4.59706 73.64629 11669 ft 390 kts 353°
2026-04-29 11:01 4.62392 73.64136 12045 ft 395 kts 349°
2026-04-29 11:01 4.65085 73.63532 12437 ft 398 kts 348°
2026-04-29 11:01 4.67794 73.62910 12849 ft 400 kts 348°
2026-04-29 11:02 4.70519 73.62287 13257 ft 403 kts 348°
2026-04-29 11:02 4.73264 73.61663 13657 ft 406 kts 348°
2026-04-29 11:02 4.76029 73.61035 14015 ft 408 kts 349°
2026-04-29 11:02 4.78804 73.60407 14411 ft 410 kts 349°
2026-04-29 11:03 4.81594 73.59776 14779 ft 412 kts 349°
2026-04-29 11:03 4.84399 73.59142 15116 ft 415 kts 349°
2026-04-29 11:03 4.87229 73.58502 15484 ft 417 kts 349°
2026-04-29 11:03 4.90064 73.57861 15847 ft 419 kts 349°
2026-04-29 11:04 4.92886 73.57223 16205 ft 422 kts 349°
2026-04-29 11:04 4.95755 73.56575 16589 ft 424 kts 349°
2026-04-29 11:04 4.98642 73.55922 16956 ft 426 kts 349°
2026-04-29 11:04 5.01543 73.55266 17335 ft 428 kts 349°
2026-04-29 11:05 5.04465 73.54606 17698 ft 431 kts 349°
2026-04-29 11:05 5.07401 73.53942 18068 ft 434 kts 349°
2026-04-29 11:05 5.10351 73.53275 18404 ft 436 kts 349°
2026-04-29 11:05 5.13325 73.52602 18732 ft 438 kts 349°
2026-04-29 11:06 5.16306 73.51928 19077 ft 440 kts 349°
2026-04-29 11:06 5.19300 73.51250 19424 ft 442 kts 349°
2026-04-29 11:06 5.22277 73.50427 19737 ft 446 kts 342°
2026-04-29 11:06 5.25128 73.49152 20051 ft 450 kts 334°
2026-04-29 11:07 5.27887 73.47657 20378 ft 453 kts 333°
2026-04-29 11:07 5.30649 73.46117 20676 ft 455 kts 333°
2026-04-29 11:07 5.33422 73.44570 20987 ft 457 kts 333°
2026-04-29 11:07 5.36211 73.43018 21282 ft 459 kts 333°
2026-04-29 11:08 5.38976 73.41481 21576 ft 461 kts 333°
2026-04-29 11:08 5.41790 73.39920 21861 ft 463 kts 333°
2026-04-29 11:08 5.44618 73.38351 22167 ft 465 kts 333°
2026-04-29 11:08 5.47468 73.36771 22448 ft 468 kts 333°
2026-04-29 11:09 5.50346 73.35234 22706 ft 469 kts 336°
2026-04-29 11:09 5.53390 73.34054 22975 ft 469 kts 346°
2026-04-29 11:09 5.56543 73.33215 23260 ft 470 kts 349°
2026-04-29 11:09 5.59744 73.32503 23511 ft 471 kts 351°
2026-04-29 11:10 5.62960 73.31854 23754 ft 472 kts 351°
2026-04-29 11:10 5.66196 73.31223 24024 ft 473 kts 351°
2026-04-29 11:10 5.69436 73.30588 24263 ft 475 kts 351°
2026-04-29 11:10 5.72681 73.29942 24505 ft 476 kts 350°
2026-04-29 11:11 5.75930 73.29282 24792 ft 476 kts 350°
2026-04-29 11:11 5.79141 73.28622 25033 ft 477 kts 350°
2026-04-29 11:11 5.82403 73.27946 25263 ft 479 kts 350°
2026-04-29 11:11 5.85668 73.27267 25521 ft 479 kts 349°
2026-04-29 11:12 5.88938 73.26586 25783 ft 480 kts 349°
2026-04-29 11:12 5.92211 73.25904 26014 ft 481 kts 349°
2026-04-29 11:12 5.95489 73.25222 26250 ft 482 kts 349°
2026-04-29 11:12 5.98781 73.24537 26481 ft 483 kts 349°
2026-04-29 11:13 6.02085 73.23849 26710 ft 484 kts 349°
2026-04-29 11:13 6.05394 73.23161 26939 ft 486 kts 349°
2026-04-29 11:13 6.08704 73.22473 27167 ft 487 kts 349°
2026-04-29 11:13 6.12027 73.21782 27400 ft 488 kts 349°
2026-04-29 11:14 6.15347 73.21091 27621 ft 489 kts 349°
2026-04-29 11:14 6.18689 73.20396 27834 ft 490 kts 349°
2026-04-29 11:14 6.22040 73.19699 28002 ft 492 kts 349°
2026-04-29 11:14 6.25359 73.19009 28184 ft 494 kts 349°
2026-04-29 11:15 6.28728 73.18307 28392 ft 495 kts 349°
2026-04-29 11:15 6.32103 73.17605 28615 ft 496 kts 349°
2026-04-29 11:15 6.35489 73.16900 28823 ft 497 kts 349°
2026-04-29 11:15 6.38885 73.16193 29020 ft 498 kts 349°
2026-04-29 11:16 6.42293 73.15483 29205 ft 499 kts 348°
2026-04-29 11:16 6.45691 73.14775 29444 ft 500 kts 348°
2026-04-29 11:16 6.49101 73.14065 29739 ft 499 kts 348°
2026-04-29 11:16 6.52493 73.13358 29997 ft 498 kts 348°
2026-04-29 11:17 6.55884 73.12652 30215 ft 497 kts 348°
2026-04-29 11:17 6.59267 73.11947 30477 ft 496 kts 348°
2026-04-29 11:17 6.62639 73.11244 30725 ft 494 kts 348°
2026-04-29 11:17 6.66007 73.10542 30952 ft 493 kts 348°
2026-04-29 11:18 6.69366 73.09842 31177 ft 493 kts 348°
2026-04-29 11:18 6.72720 73.09143 31386 ft 492 kts 348°
2026-04-29 11:18 6.76071 73.08444 31602 ft 491 kts 348°
2026-04-29 11:18 6.79414 73.07747 31812 ft 490 kts 348°
2026-04-29 11:19 6.82707 73.07060 32022 ft 489 kts 348°
2026-04-29 11:19 6.86043 73.06364 32201 ft 489 kts 348°
2026-04-29 11:19 6.89369 73.05670 32405 ft 488 kts 348°
2026-04-29 11:19 6.92694 73.04977 32600 ft 487 kts 349°
2026-04-29 11:20 6.96008 73.04285 32794 ft 486 kts 349°
2026-04-29 11:20 6.99324 73.03593 32949 ft 486 kts 349°
2026-04-29 11:20 7.02642 73.02900 33101 ft 486 kts 349°
2026-04-29 11:20 7.05962 73.02207 33245 ft 486 kts 349°
2026-04-29 11:21 7.09281 73.01514 33413 ft 486 kts 349°
2026-04-29 11:21 7.12546 73.00832 33562 ft 486 kts 349°
2026-04-29 11:21 7.15860 73.00141 33729 ft 485 kts 349°
2026-04-29 11:22 7.22409 72.98771 33839 ft 470 kts 349°
2026-04-29 11:22 7.28686 72.97457 33835 ft 461 kts 350°
2026-04-29 11:23 7.34968 72.96145 33839 ft 459 kts 350°
2026-04-29 11:23 7.41226 72.94838 33836 ft 459 kts 349°
2026-04-29 11:24 7.47501 72.93528 33840 ft 461 kts 349°
2026-04-29 11:24 7.53740 72.92222 33839 ft 461 kts 349°
2026-04-29 11:25 7.60012 72.90877 33840 ft 461 kts 349°
2026-04-29 11:25 7.66289 72.89526 33839 ft 461 kts 349°
2026-04-29 11:26 7.75707 72.87509 33842 ft 461 kts 349°
2026-04-29 11:26 7.81947 72.86174 33836 ft 461 kts 349°
2026-04-29 11:27 7.88237 72.84829 33841 ft 461 kts 349°
2026-04-29 11:27 7.94504 72.83581 33841 ft 460 kts 354°
2026-04-29 11:28 8.00883 72.83276 33837 ft 460 kts
2026-04-29 11:28 8.07302 72.83263 33831 ft 462 kts
2026-04-29 11:29 8.13738 72.83310 33837 ft 463 kts
2026-04-29 11:29 8.20131 72.83350 33843 ft 463 kts
2026-04-29 11:30 8.26568 72.83378 33837 ft 463 kts
2026-04-29 11:30 8.33008 72.83401 33839 ft 463 kts
2026-04-29 11:31 8.39452 72.83424 33836 ft 464 kts
2026-04-29 11:31 8.45925 72.83447 33836 ft 465 kts
2026-04-29 11:32 8.52342 72.83469 33834 ft 465 kts
2026-04-29 11:32 8.58814 72.83493 33834 ft 465 kts
2026-04-29 11:33 8.65283 72.83516 33837 ft 465 kts
2026-04-29 11:33 8.71752 72.83539 33831 ft 465 kts
2026-04-29 11:34 8.78165 72.83562 33836 ft 464 kts
2026-04-29 11:34 8.84630 72.83586 33837 ft 464 kts
2026-04-29 11:35 8.91087 72.83609 33839 ft 464 kts
2026-04-29 11:35 8.97552 72.83632 33836 ft 464 kts
2026-04-29 11:36 9.04011 72.83655 33838 ft 464 kts
2026-04-29 11:36 9.10424 72.83679 33839 ft 464 kts
2026-04-29 11:37 9.16884 72.83702 33835 ft 464 kts
2026-04-29 11:37 9.23340 72.83725 33834 ft 464 kts
2026-04-29 11:38 9.29790 72.83748 33834 ft 464 kts
2026-04-29 11:38 9.36205 72.83772 33835 ft 464 kts
2026-04-29 11:39 9.42667 72.83795 33836 ft 467 kts
2026-04-29 11:39 9.49208 72.83819 33833 ft 473 kts
2026-04-29 11:40 9.55843 72.83843 33834 ft 480 kts
2026-04-29 11:40 9.62550 72.83867 33834 ft 484 kts
2026-04-29 11:41 9.69224 72.83891 33834 ft 482 kts
2026-04-29 11:41 9.75936 72.83915 33828 ft 482 kts
2026-04-29 11:42 9.82640 72.83940 33835 ft 482 kts 360°
2026-04-29 11:42 9.89345 72.83964 33833 ft 482 kts 360°
2026-04-29 11:43 9.96001 72.83988 33836 ft 482 kts 360°
2026-04-29 11:43 10.02709 72.84012 33837 ft 482 kts 360°
2026-04-29 11:44 10.09417 72.84036 33838 ft 482 kts 360°
2026-04-29 11:44 10.16118 72.84061 33836 ft 481 kts 359°
2026-04-29 11:45 10.22754 72.84085 33835 ft 480 kts 359°
2026-04-29 11:45 10.29434 72.84109 33834 ft 480 kts 359°
2026-04-29 11:46 10.36114 72.84133 33834 ft 480 kts 359°
2026-04-29 11:46 10.42792 72.84157 33831 ft 480 kts 359°
2026-04-29 11:47 10.49431 72.84182 33835 ft 480 kts 359°
2026-04-29 11:47 10.56110 72.84206 33831 ft 480 kts 359°
2026-04-29 11:48 10.61665 72.84226 33832 ft 480 kts 359°
2026-04-29 11:48 10.68345 72.84250 33831 ft 480 kts 359°
2026-04-29 11:49 10.75024 72.84275 33835 ft 480 kts 359°
2026-04-29 11:49 10.82797 72.84303 33830 ft 480 kts 359°
2026-04-29 11:50 10.88340 72.84324 33829 ft 479 kts 359°
2026-04-29 11:50 10.94994 72.84348 33828 ft 478 kts 359°
2026-04-29 11:51 11.01648 72.84372 33829 ft 478 kts 359°
2026-04-29 11:51 11.08292 72.84396 33830 ft 478 kts 359°
2026-04-29 11:52 11.14900 72.84420 33830 ft 478 kts 359°
2026-04-29 11:52 11.21552 72.84444 33828 ft 478 kts 359°
2026-04-29 11:53 11.28199 72.84469 33825 ft 478 kts 359°
2026-04-29 11:53 11.34854 72.84493 33825 ft 478 kts 359°
2026-04-29 11:54 11.41504 72.84517 33825 ft 478 kts 359°
2026-04-29 11:54 11.48109 72.84542 33828 ft 478 kts 359°
2026-04-29 11:55 11.54757 72.84566 33820 ft 478 kts 359°
2026-04-29 11:55 11.61414 72.84590 33820 ft 478 kts 359°
2026-04-29 11:56 11.68071 72.84615 33823 ft 478 kts 359°
2026-04-29 11:56 11.74685 72.84639 33823 ft 479 kts 359°
2026-04-29 11:57 11.81343 72.84663 33820 ft 479 kts 359°
2026-04-29 11:57 11.88001 72.84688 33823 ft 479 kts 358°
2026-04-29 11:58 11.94662 72.84712 33820 ft 478 kts 358°
2026-04-29 11:58 12.01267 72.84736 33822 ft 478 kts 358°
2026-04-29 11:59 12.07918 72.84761 33820 ft 478 kts 358°
2026-04-29 11:59 12.14568 72.84785 33817 ft 478 kts 358°
2026-04-29 12:00 12.21223 72.84810 33817 ft 478 kts 358°
2026-04-29 12:00 12.27832 72.84834 33820 ft 479 kts 358°
2026-04-29 12:01 12.34501 72.84858 33817 ft 480 kts 358°
2026-04-29 12:01 12.41182 72.84883 33819 ft 480 kts 358°
2026-04-29 12:02 12.47863 72.84908 33815 ft 480 kts 358°
2026-04-29 12:02 12.54498 72.84932 33817 ft 480 kts 358°
2026-04-29 12:03 12.61182 72.84957 33816 ft 482 kts 358°
2026-04-29 12:03 12.67898 72.84982 33812 ft 483 kts 358°
2026-04-29 12:04 12.74619 72.85007 33811 ft 483 kts 358°
2026-04-29 12:04 12.81306 72.85032 33816 ft 483 kts 358°
2026-04-29 12:05 12.88025 72.85056 33808 ft 483 kts 358°
2026-04-29 12:05 12.94753 72.85081 33810 ft 483 kts 358°
2026-04-29 12:06 13.01478 72.85106 33809 ft 483 kts 358°
2026-04-29 12:06 13.08155 72.85131 33810 ft 483 kts 358°
2026-04-29 12:07 13.14878 72.85156 33807 ft 483 kts 358°
2026-04-29 12:07 13.21599 72.85181 33806 ft 483 kts 358°
2026-04-29 12:08 13.28323 72.85206 33812 ft 483 kts 358°
2026-04-29 12:08 13.35037 72.85231 33804 ft 482 kts 358°
2026-04-29 12:09 13.41699 72.85256 33810 ft 482 kts 358°
2026-04-29 12:09 13.48413 72.85281 33805 ft 482 kts 358°
2026-04-29 12:10 13.55119 72.85305 33806 ft 482 kts 358°
2026-04-29 12:10 13.61828 72.85330 33814 ft 482 kts 358°
2026-04-29 12:11 13.68498 72.85355 33809 ft 483 kts 358°
2026-04-29 12:11 13.75219 72.85380 33806 ft 483 kts 358°
2026-04-29 12:12 13.81936 72.85405 33792 ft 483 kts 358°
2026-04-29 12:12 13.88662 72.85431 33794 ft 483 kts 358°
2026-04-29 12:13 13.95339 72.85455 33802 ft 483 kts 359°
2026-04-29 12:13 14.02057 72.85480 33803 ft 482 kts 359°
2026-04-29 12:14 14.08763 72.85506 33801 ft 482 kts 359°
2026-04-29 12:14 14.15471 72.85531 33795 ft 482 kts 359°
2026-04-29 12:15 14.22134 72.85556 33803 ft 482 kts 359°
2026-04-29 12:15 14.28838 72.85581 33799 ft 482 kts 359°
2026-04-29 12:16 14.35537 72.85606 33803 ft 480 kts 359°
2026-04-29 12:16 14.42197 72.85631 33798 ft 478 kts 359°
2026-04-29 12:17 14.48806 72.85656 33801 ft 478 kts 359°
2026-04-29 12:17 14.55467 72.85681 33807 ft 478 kts 359°
2026-04-29 12:18 14.62122 72.85706 33800 ft 478 kts 359°
2026-04-29 12:18 14.68777 72.85731 33804 ft 478 kts 359°
2026-04-29 12:19 14.75441 72.85756 33803 ft 478 kts 359°
2026-04-29 12:19 14.82108 72.85781 33798 ft 478 kts 359°
2026-04-29 12:20 14.88723 72.85805 33807 ft 478 kts 359°
2026-04-29 12:20 14.95381 72.85831 33806 ft 478 kts 359°
2026-04-29 12:21 15.02041 72.85856 33805 ft 477 kts 359°
2026-04-29 12:21 15.08666 72.85881 33796 ft 475 kts 359°
2026-04-29 12:22 15.15288 72.85906 33795 ft 475 kts 359°
2026-04-29 12:22 15.21859 72.85930 33792 ft 475 kts 359°
2026-04-29 12:23 15.28482 72.85955 33792 ft 475 kts 359°
2026-04-29 12:23 15.35095 72.85981 33793 ft 474 kts 359°
2026-04-29 12:24 15.41684 72.86006 33792 ft 473 kts 359°
2026-04-29 12:24 15.48231 72.86030 33791 ft 473 kts 359°
2026-04-29 12:25 15.54808 72.86055 33792 ft 473 kts 359°
2026-04-29 12:26 15.64680 72.86092 33793 ft 473 kts 359°
2026-04-29 12:26 15.71261 72.86118 33786 ft 472 kts 359°
2026-04-29 12:27 15.77824 72.86142 33786 ft 472 kts 359°
2026-04-29 12:27 15.84387 72.86167 33787 ft 471 kts 359°
2026-04-29 12:28 15.90909 72.86192 33789 ft 472 kts 359°
2026-04-29 12:28 15.97474 72.86217 33790 ft 472 kts 359°
2026-04-29 12:29 16.04039 72.86242 33786 ft 472 kts 359°
2026-04-29 12:29 16.10624 72.86267 33788 ft 473 kts 359°
2026-04-29 12:30 16.17205 72.86292 33789 ft 473 kts 359°
2026-04-29 12:30 16.23802 72.86317 33783 ft 473 kts 359°
2026-04-29 12:31 16.30344 72.86342 33787 ft 473 kts 359°
2026-04-29 12:31 16.36937 72.86367 33785 ft 474 kts 359°
2026-04-29 12:32 16.43541 72.86392 33783 ft 475 kts 359°
2026-04-29 12:32 16.50146 72.86418 33784 ft 475 kts 359°
2026-04-29 12:33 16.56757 72.86443 33786 ft 474 kts 359°
2026-04-29 12:33 16.63315 72.86468 33781 ft 475 kts 359°
2026-04-29 12:34 16.69922 72.86494 33783 ft 475 kts 359°
2026-04-29 12:34 16.76547 72.86519 33781 ft 475 kts 359°
2026-04-29 12:35 16.83173 72.86544 33779 ft 475 kts 359°
2026-04-29 12:35 16.89795 72.86570 33781 ft 475 kts 359°
2026-04-29 12:36 16.96375 72.86595 33783 ft 476 kts 359°
2026-04-29 12:36 17.02992 72.86620 33785 ft 475 kts 359°
2026-04-29 12:37 17.09608 72.86646 33784 ft 475 kts 359°
2026-04-29 12:37 17.16216 72.86671 33781 ft 475 kts 359°
2026-04-29 12:38 17.22827 72.86697 33782 ft 475 kts 359°
2026-04-29 12:38 17.29443 72.86722 33782 ft 475 kts 359°
2026-04-29 12:39 17.36049 72.86748 33787 ft 474 kts 359°
2026-04-29 12:39 17.42600 72.86773 33785 ft 472 kts 359°
2026-04-29 12:40 17.49164 72.86798 33783 ft 471 kts 359°
2026-04-29 12:40 17.55727 72.86824 33785 ft 471 kts 359°
2026-04-29 12:41 17.62282 72.86849 33784 ft 471 kts 359°
2026-04-29 12:41 17.68837 72.86874 33792 ft 471 kts 359°
2026-04-29 12:42 17.75373 72.86900 33784 ft 468 kts 359°
2026-04-29 12:42 17.81874 72.86925 33785 ft 467 kts 359°
2026-04-29 12:43 17.88378 72.86950 33787 ft 467 kts 359°
2026-04-29 12:43 17.94878 72.86975 33788 ft 467 kts 359°
2026-04-29 12:44 18.01339 72.87000 33784 ft 467 kts 359°
2026-04-29 12:44 18.07837 72.87026 33784 ft 466 kts 359°
2026-04-29 12:45 18.14330 72.87051 33787 ft 466 kts 359°
2026-04-29 12:45 18.20831 72.87076 33784 ft 466 kts 359°
2026-04-29 12:46 18.27288 72.87101 33784 ft 466 kts 359°
2026-04-29 12:46 18.33785 72.87127 33795 ft 466 kts 359°
2026-04-29 12:47 18.40258 72.87152 33781 ft 463 kts 359°
2026-04-29 12:47 18.46702 72.87177 33781 ft 463 kts 359°
2026-04-29 12:48 18.53147 72.87202 33780 ft 463 kts 359°
2026-04-29 12:48 18.59544 72.87227 33775 ft 463 kts 359°
2026-04-29 12:49 18.65985 72.87253 33785 ft 463 kts 359°
2026-04-29 12:49 18.72413 72.87278 33775 ft 460 kts 359°
2026-04-29 12:50 18.78814 72.87303 33773 ft 459 kts 359°
2026-04-29 12:50 18.85204 72.87328 33775 ft 459 kts 359°
2026-04-29 12:51 18.91558 72.87353 33770 ft 459 kts 359°
2026-04-29 12:51 18.97949 72.87378 33770 ft 459 kts 359°
2026-04-29 12:52 19.04341 72.87404 33802 ft 457 kts 358°
2026-04-29 12:52 19.10707 72.87442 33801 ft 456 kts 359°
2026-04-29 12:53 19.17018 72.87690 33801 ft 457 kts
2026-04-29 12:53 19.23360 72.88015 33794 ft 457 kts
2026-04-29 12:54 19.29717 72.88318 33773 ft 456 kts
2026-04-29 12:54 19.36066 72.88597 33779 ft 456 kts
2026-04-29 12:55 19.42411 72.88868 33774 ft 456 kts
2026-04-29 12:55 19.48765 72.89139 33777 ft 457 kts
2026-04-29 12:56 19.55084 72.89410 33789 ft 457 kts
2026-04-29 12:56 19.61431 72.89682 33796 ft 457 kts
2026-04-29 12:57 19.67781 72.89956 33800 ft 456 kts
2026-04-29 12:57 19.74128 72.90229 33798 ft 456 kts
2026-04-29 12:58 19.80487 72.90503 33808 ft 456 kts
2026-04-29 12:58 19.85758 72.90731 33804 ft 456 kts
2026-04-29 12:59 19.93138 72.91049 33815 ft 456 kts
2026-04-29 12:59 19.98416 72.91277 33814 ft 456 kts 360°
2026-04-29 13:00 20.04732 72.91551 33817 ft 453 kts
2026-04-29 13:00 20.11026 72.91825 33820 ft 453 kts 360°
2026-04-29 13:01 20.17338 72.92097 33805 ft 453 kts 360°
2026-04-29 13:01 20.23638 72.92369 33802 ft 453 kts 360°
2026-04-29 13:02 20.29937 72.92642 33809 ft 453 kts 360°
2026-04-29 13:02 20.36181 72.92914 33796 ft 451 kts 360°
2026-04-29 13:03 20.42445 72.93186 33802 ft 450 kts 360°
2026-04-29 13:03 20.48715 72.93458 33792 ft 450 kts 360°
2026-04-29 13:04 20.54986 72.93731 33793 ft 450 kts 360°
2026-04-29 13:04 20.61210 72.94002 33799 ft 450 kts 360°
2026-04-29 13:05 20.67459 72.94275 33786 ft 447 kts 360°
2026-04-29 13:05 20.73677 72.94546 33785 ft 447 kts 360°
2026-04-29 13:06 20.79894 72.94808 33785 ft 447 kts 359°
2026-04-29 13:06 20.86106 72.95028 33779 ft 447 kts 359°
2026-04-29 13:07 20.92318 72.95245 33785 ft 447 kts 359°
2026-04-29 13:07 20.98531 72.95467 33779 ft 445 kts 359°
2026-04-29 13:08 21.04688 72.95692 33777 ft 444 kts 359°
2026-04-29 13:08 21.10874 72.95918 33759 ft 444 kts 359°
2026-04-29 13:09 21.17056 72.96145 33758 ft 444 kts 359°
2026-04-29 13:09 21.23243 72.96410 33759 ft 444 kts 360°
2026-04-29 13:10 21.29420 72.96745 33762 ft 444 kts 360°
2026-04-29 13:10 21.35560 72.97081 33758 ft 444 kts 360°
2026-04-29 13:11 21.41740 72.97409 33760 ft 444 kts 360°
2026-04-29 13:11 21.47933 72.97732 33747 ft 444 kts 360°
2026-04-29 13:12 21.54067 72.97786 33749 ft 441 kts 352°
2026-04-29 13:12 21.59987 72.96262 33737 ft 436 kts 337°
2026-04-29 13:13 21.65233 72.93021 33736 ft 436 kts 326°
2026-04-29 13:13 21.70175 72.89211 33724 ft 437 kts 325°
2026-04-29 13:14 21.75081 72.85307 33725 ft 438 kts 325°
2026-04-29 13:14 21.79984 72.81433 33724 ft 437 kts 325°
2026-04-29 13:15 21.84865 72.77603 33708 ft 437 kts 325°
2026-04-29 13:15 21.89790 72.73747 33711 ft 436 kts 325°
2026-04-29 13:16 21.94692 72.69907 33706 ft 435 kts 325°
2026-04-29 13:16 21.99561 72.66088 33706 ft 435 kts 325°
2026-04-29 13:17 22.04447 72.62251 33698 ft 435 kts 325°
2026-04-29 13:17 22.09338 72.58407 33698 ft 434 kts 325°
2026-04-29 13:18 22.14217 72.54568 33698 ft 433 kts 325°
2026-04-29 13:18 22.19083 72.50737 33684 ft 432 kts 325°
2026-04-29 13:19 22.23941 72.46908 33688 ft 432 kts 325°
2026-04-29 13:19 22.28765 72.43104 33685 ft 432 kts 325°
2026-04-29 13:20 22.33619 72.39273 33678 ft 432 kts 325°
2026-04-29 13:20 22.38477 72.35434 33676 ft 432 kts 325°
2026-04-29 13:21 22.43327 72.31599 33678 ft 432 kts 324°
2026-04-29 13:21 22.48195 72.27746 33679 ft 433 kts 324°
2026-04-29 13:22 22.53036 72.23912 33665 ft 434 kts 324°
2026-04-29 13:22 22.57922 72.20038 33666 ft 436 kts 324°
2026-04-29 13:23 22.62817 72.16153 33666 ft 436 kts 324°
2026-04-29 13:23 22.67712 72.12264 33667 ft 436 kts 324°
2026-04-29 13:24 22.72605 72.08374 33684 ft 436 kts 324°
2026-04-29 13:24 22.77481 72.04493 33667 ft 434 kts 324°
2026-04-29 13:25 22.82341 72.00622 33665 ft 433 kts 324°
2026-04-29 13:25 22.89627 71.94812 33672 ft 433 kts 324°
2026-04-29 13:26 22.94487 71.90933 33658 ft 433 kts 324°
2026-04-29 13:26 22.99316 71.87074 33663 ft 434 kts 324°
2026-04-29 13:27 23.04179 71.83185 33671 ft 433 kts 324°
2026-04-29 13:27 23.09021 71.79309 33670 ft 432 kts 324°
2026-04-29 13:28 23.13854 71.75436 33669 ft 432 kts 324°
2026-04-29 13:28 23.18698 71.71551 33670 ft 432 kts 324°
2026-04-29 13:29 23.23531 71.67672 33669 ft 432 kts 324°
2026-04-29 13:29 23.28364 71.63789 33682 ft 432 kts 324°
2026-04-29 13:30 23.33185 71.59912 33667 ft 429 kts 324°
2026-04-29 13:30 23.37980 71.56052 33664 ft 428 kts 324°
2026-04-29 13:31 23.42769 71.52194 33661 ft 431 kts 324°
2026-04-29 13:31 23.47590 71.48306 33661 ft 431 kts 324°
2026-04-29 13:32 23.52418 71.44410 33655 ft 431 kts 324°
2026-04-29 13:32 23.57243 71.40511 33662 ft 431 kts 323°
2026-04-29 13:33 23.62049 71.36625 33655 ft 429 kts 323°
2026-04-29 13:33 23.66840 71.32746 33655 ft 429 kts 323°
2026-04-29 13:34 23.71603 71.28887 33650 ft 429 kts 323°
2026-04-29 13:34 23.76399 71.24998 33647 ft 429 kts 323°
2026-04-29 13:35 23.81190 71.21109 33650 ft 429 kts 323°
2026-04-29 13:35 23.85982 71.17216 33649 ft 428 kts 323°
2026-04-29 13:36 23.90754 71.13335 33647 ft 427 kts 323°
2026-04-29 13:36 23.95519 71.09456 33647 ft 427 kts 323°
2026-04-29 13:37 24.00286 71.05572 33647 ft 427 kts 323°
2026-04-29 13:37 24.05051 71.01687 33647 ft 427 kts 323°
2026-04-29 13:38 24.09793 70.97857 33650 ft 427 kts 324°
2026-04-29 13:38 24.14664 70.94107 33650 ft 427 kts 325°
2026-04-29 13:39 24.19531 70.90388 33647 ft 427 kts 324°
2026-04-29 13:39 24.24397 70.86642 33646 ft 427 kts 324°
2026-04-29 13:40 24.29169 70.82753 33647 ft 428 kts 322°
2026-04-29 13:40 24.33826 70.78725 33647 ft 428 kts 322°
2026-04-29 13:41 24.38507 70.74687 33658 ft 428 kts 322°
2026-04-29 13:41 24.43198 70.70682 33653 ft 427 kts 322°
2026-04-29 13:42 24.47856 70.66719 33653 ft 427 kts 322°
2026-04-29 13:42 24.52557 70.62719 33650 ft 427 kts 322°
2026-04-29 13:43 24.57248 70.58723 33653 ft 427 kts 322°
2026-04-29 13:43 24.61943 70.54717 33655 ft 427 kts 322°
2026-04-29 13:44 24.66611 70.50731 33653 ft 428 kts 322°
2026-04-29 13:44 24.71316 70.46708 33650 ft 427 kts 322°
2026-04-29 13:45 24.76010 70.42692 33650 ft 427 kts 322°
2026-04-29 13:45 24.79911 70.39350 33650 ft 427 kts 322°
2026-04-29 13:46 24.85367 70.34673 33653 ft 427 kts 322°
2026-04-29 13:46 24.89298 70.31300 33656 ft 427 kts 322°
2026-04-29 13:47 24.93950 70.27304 33651 ft 426 kts 321°
2026-04-29 13:47 24.98620 70.23289 33654 ft 425 kts 321°
2026-04-29 13:48 25.03286 70.19274 33643 ft 425 kts 321°
2026-04-29 13:48 25.07960 70.15247 33647 ft 426 kts 321°
2026-04-29 13:49 25.12637 70.11214 33651 ft 427 kts 321°
2026-04-29 13:49 25.17287 70.07200 33651 ft 427 kts 321°
2026-04-29 13:50 25.21956 70.03166 33652 ft 424 kts 321°
2026-04-29 13:50 25.26589 69.99159 33643 ft 422 kts 321°
2026-04-29 13:51 25.31216 69.95153 33643 ft 422 kts 321°
2026-04-29 13:51 25.35840 69.91146 33635 ft 422 kts 321°
2026-04-29 13:52 25.40430 69.87164 33635 ft 422 kts 321°
2026-04-29 13:52 25.45059 69.83144 33628 ft 423 kts 321°
2026-04-29 13:53 25.49644 69.79061 33633 ft 423 kts 317°
2026-04-29 13:53 25.53440 69.74105 33634 ft 424 kts 304°
2026-04-29 13:54 25.56481 69.68495 33632 ft 425 kts 302°
2026-04-29 13:54 25.59354 69.62807 33631 ft 425 kts 301°
2026-04-29 13:55 25.62225 69.57081 33628 ft 425 kts 301°
2026-04-29 13:55 25.65117 69.51358 33626 ft 425 kts 301°
2026-04-29 13:56 25.68021 69.45631 33642 ft 427 kts 301°
2026-04-29 13:56 25.70922 69.39909 33628 ft 424 kts 301°
2026-04-29 13:57 25.73805 69.34214 33623 ft 423 kts 301°
2026-04-29 13:57 25.77181 69.28881 33701 ft 424 kts 312°
2026-04-29 13:58 25.79297 69.26594 33804 ft 426 kts 319°
2026-04-29 13:58 25.81688 69.24650 33910 ft 428 kts 326°
2026-04-29 13:58 25.84334 69.23101 34030 ft 432 kts 334°
2026-04-29 13:58 25.87183 69.21996 34159 ft 436 kts 341°
2026-04-29 13:59 25.90159 69.21273 34268 ft 440 kts 345°
2026-04-29 13:59 25.93195 69.20770 34437 ft 442 kts 347°
2026-04-29 13:59 25.96205 69.20385 34692 ft 439 kts 348°
2026-04-29 13:59 25.99280 69.20028 34862 ft 439 kts 348°
2026-04-29 14:00 26.05315 69.19300 35067 ft 439 kts 347°
2026-04-29 14:00 26.08351 69.18906 35195 ft 438 kts 347°
2026-04-29 14:00 26.11379 69.18497 35315 ft 438 kts 347°
2026-04-29 14:01 26.14406 69.18080 35436 ft 438 kts 347°
2026-04-29 14:01 26.17436 69.17657 35529 ft 439 kts 347°
2026-04-29 14:01 26.23505 69.16808 35611 ft 438 kts 347°
2026-04-29 14:02 26.29499 69.15973 35609 ft 436 kts 346°
2026-04-29 14:02 26.35517 69.15134 35609 ft 436 kts 346°
2026-04-29 14:03 26.41544 69.14292 35606 ft 436 kts 346°
2026-04-29 14:03 26.47573 69.13450 35606 ft 436 kts 346°
2026-04-29 14:04 26.53598 69.12608 35609 ft 437 kts 346°
2026-04-29 14:04 26.59630 69.11764 35608 ft 437 kts 346°
2026-04-29 14:05 26.65670 69.10918 35605 ft 437 kts 346°
2026-04-29 14:05 26.71670 69.10078 35606 ft 437 kts 346°
2026-04-29 14:06 26.77715 69.09229 35608 ft 437 kts 346°
2026-04-29 14:06 26.83748 69.08381 35609 ft 437 kts 346°
2026-04-29 14:07 26.89791 69.07532 35606 ft 437 kts 346°
2026-04-29 14:07 26.95833 69.06681 35609 ft 437 kts 346°
2026-04-29 14:08 27.01832 69.05836 35609 ft 437 kts 346°
2026-04-29 14:08 27.07867 69.04984 35610 ft 437 kts 346°
2026-04-29 14:09 27.13898 69.04133 35612 ft 436 kts 346°
2026-04-29 14:09 27.19918 69.03281 35611 ft 436 kts 346°
2026-04-29 14:10 27.25948 69.02427 35611 ft 436 kts 346°
2026-04-29 14:10 27.31978 69.01573 35611 ft 436 kts 346°
2026-04-29 14:11 27.38007 69.00718 35606 ft 435 kts 346°
2026-04-29 14:11 27.44060 69.00358 35606 ft 446 kts 356°
2026-04-29 14:12 27.50235 69.01873 35610 ft 463 kts 10°
2026-04-29 14:12 27.56256 69.04677 35611 ft 471 kts 15°
2026-04-29 14:13 27.62209 69.07811 35625 ft 472 kts 15°
2026-04-29 14:13 27.68164 69.10905 35608 ft 471 kts 15°
2026-04-29 14:14 27.74145 69.13934 35606 ft 470 kts 15°
2026-04-29 14:14 27.80094 69.16918 35606 ft 470 kts 14°
2026-04-29 14:15 27.86078 69.19920 35615 ft 470 kts 14°
2026-04-29 14:15 27.92164 69.22291 35623 ft 452 kts
2026-04-29 14:16 27.98303 69.23071 35600 ft 444 kts 355°
2026-04-29 14:16 28.04457 69.23494 35600 ft 443 kts 354°
2026-04-29 14:17 28.10626 69.23857 35594 ft 443 kts 354°
2026-04-29 14:17 28.16779 69.24240 35592 ft 443 kts 355°
2026-04-29 14:18 28.22937 69.24643 35601 ft 443 kts 354°
2026-04-29 14:18 28.29070 69.25051 35594 ft 444 kts 354°
2026-04-29 14:19 28.35233 69.25463 35597 ft 444 kts 354°
2026-04-29 14:19 28.41404 69.25874 35597 ft 444 kts 354°
2026-04-29 14:20 28.47565 69.26284 35592 ft 444 kts 354°
2026-04-29 14:20 28.53734 69.26696 35599 ft 444 kts 354°
2026-04-29 14:21 28.59906 69.27107 35600 ft 444 kts 354°
2026-04-29 14:21 28.66073 69.27519 35607 ft 444 kts 354°
2026-04-29 14:22 28.72248 69.27933 35610 ft 444 kts 354°
2026-04-29 14:22 28.78381 69.28342 35619 ft 444 kts 354°
2026-04-29 14:23 28.84556 69.28751 35621 ft 445 kts 354°
2026-04-29 14:23 28.90742 69.29163 35634 ft 445 kts 354°
2026-04-29 14:24 28.96932 69.29576 35636 ft 445 kts 354°
2026-04-29 14:24 29.03083 69.29986 35643 ft 445 kts 354°
2026-04-29 14:25 29.09261 69.30403 35653 ft 445 kts 354°
2026-04-29 14:25 29.15454 69.30821 35652 ft 445 kts 354°
2026-04-29 14:26 29.21638 69.31235 35661 ft 445 kts 354°
2026-04-29 14:26 29.27824 69.31650 35662 ft 445 kts 354°
2026-04-29 14:27 29.34008 69.32068 35673 ft 445 kts 354°
2026-04-29 14:28 29.43289 69.32697 35671 ft 444 kts 354°
2026-04-29 14:28 29.49479 69.33116 35676 ft 446 kts 354°
2026-04-29 14:29 29.55638 69.33533 35673 ft 445 kts 354°
2026-04-29 14:29 29.61812 69.33955 35675 ft 444 kts 354°
2026-04-29 14:30 29.67987 69.34373 35685 ft 444 kts 354°
2026-04-29 14:30 29.74162 69.34793 35689 ft 444 kts 354°
2026-04-29 14:31 29.80297 69.35211 35694 ft 444 kts 354°
2026-04-29 14:31 29.86475 69.35620 35705 ft 444 kts 354°
2026-04-29 14:32 29.92655 69.36043 35693 ft 445 kts 354°
2026-04-29 14:32 29.97793 69.36401 35697 ft 445 kts 354°
2026-04-29 14:33 30.03979 69.36830 35697 ft 445 kts 354°
2026-04-29 14:33 30.10162 69.37255 35694 ft 445 kts 353°
2026-04-29 14:34 30.16216 69.37670 35703 ft 445 kts 354°
2026-04-29 14:34 30.22412 69.38096 35690 ft 446 kts 354°
2026-04-29 14:35 30.28613 69.38530 35689 ft 446 kts 354°
2026-04-29 14:35 30.34783 69.38959 35689 ft 446 kts 354°
2026-04-29 14:36 30.40978 69.39382 35712 ft 446 kts 354°
2026-04-29 14:36 30.47182 69.39808 35692 ft 446 kts 354°
2026-04-29 14:37 30.53385 69.40237 35699 ft 446 kts 354°
2026-04-29 14:37 30.59588 69.40668 35700 ft 446 kts 354°
2026-04-29 14:38 30.65745 69.41096 35708 ft 446 kts 354°
2026-04-29 14:38 30.71953 69.41527 35715 ft 448 kts 354°
2026-04-29 14:39 30.78183 69.41960 35719 ft 448 kts 354°
2026-04-29 14:39 30.84423 69.42397 35717 ft 448 kts 354°
2026-04-29 14:40 30.90655 69.42835 35723 ft 449 kts 354°
2026-04-29 14:40 30.96884 69.43270 35724 ft 449 kts 354°
2026-04-29 14:41 31.03132 69.43706 35728 ft 450 kts 354°
2026-04-29 14:41 31.09392 69.44146 35728 ft 450 kts 354°
2026-04-29 14:42 31.15601 69.44576 35727 ft 450 kts 354°
2026-04-29 14:42 31.21858 69.45018 35735 ft 450 kts 354°
2026-04-29 14:43 31.28092 69.45210 35724 ft 442 kts 347°
2026-04-29 14:43 31.33951 69.43698 35724 ft 424 kts 331°
2026-04-29 14:44 31.38940 69.40295 35726 ft 411 kts 316°
2026-04-29 14:44 31.42810 69.35505 35729 ft 407 kts 307°
2026-04-29 14:45 31.46340 69.30306 35742 ft 408 kts 306°
2026-04-29 14:45 31.49835 69.25035 35748 ft 411 kts 306°
2026-04-29 14:46 31.53364 69.19761 35749 ft 411 kts 306°
2026-04-29 14:46 31.56909 69.14505 35746 ft 410 kts 306°
2026-04-29 14:47 31.60411 69.09309 35760 ft 407 kts 306°
2026-04-29 14:47 31.63907 69.04105 35758 ft 406 kts 306°
2026-04-29 14:48 31.67422 68.98895 35771 ft 409 kts 306°
2026-04-29 14:48 31.71087 68.93732 35764 ft 411 kts 307°
2026-04-29 14:49 31.74798 68.88603 35765 ft 412 kts 307°
2026-04-29 14:49 31.78495 68.83467 35769 ft 410 kts 307°
2026-04-29 14:50 31.82131 68.78380 35767 ft 408 kts 307°
2026-04-29 14:50 31.85775 68.73260 35781 ft 408 kts 307°
2026-04-29 14:51 31.89420 68.68127 35778 ft 410 kts 307°
2026-04-29 14:51 31.93087 68.62967 35776 ft 411 kts 307°
2026-04-29 14:52 31.96756 68.57796 35789 ft 410 kts 307°
2026-04-29 14:52 32.00394 68.52657 35771 ft 411 kts 307°
2026-04-29 14:53 32.04048 68.47489 35789 ft 409 kts 307°
2026-04-29 14:53 32.07694 68.42330 35796 ft 409 kts 307°
2026-04-29 14:54 32.11332 68.37170 35796 ft 408 kts 307°
2026-04-29 14:54 32.14963 68.32014 35798 ft 408 kts 307°
2026-04-29 14:55 32.18564 68.26893 35791 ft 408 kts 307°
2026-04-29 14:55 32.22188 68.21735 35791 ft 408 kts 306°
2026-04-29 14:56 32.25809 68.16572 35796 ft 407 kts 306°
2026-04-29 14:56 32.29423 68.11413 35783 ft 408 kts 306°
2026-04-29 14:57 32.33050 68.06226 35783 ft 409 kts 306°
2026-04-29 14:57 32.36679 68.01033 35773 ft 409 kts 306°
2026-04-29 14:58 32.40276 67.95877 35772 ft 408 kts 306°
2026-04-29 14:58 32.43892 67.90687 35766 ft 408 kts 306°
2026-04-29 14:59 32.47505 67.85492 35779 ft 409 kts 306°
2026-04-29 14:59 32.51141 67.80268 35765 ft 412 kts 307°
2026-04-29 15:00 32.54933 67.75146 35765 ft 414 kts 308°
2026-04-29 15:00 32.58790 67.70075 35763 ft 413 kts 308°
2026-04-29 15:01 32.62606 67.65019 35770 ft 413 kts 308°
2026-04-29 15:01 32.66422 67.59914 35791 ft 413 kts 308°
2026-04-29 15:02 32.70243 67.54780 35776 ft 416 kts 308°
2026-04-29 15:02 32.74068 67.49636 35786 ft 414 kts 308°
2026-04-29 15:03 32.77875 67.44513 35793 ft 412 kts 308°
2026-04-29 15:03 32.81583 67.39322 35830 ft 412 kts 306°
2026-04-29 15:04 32.85225 67.34047 35830 ft 412 kts 306°
2026-04-29 15:04 32.88849 67.28810 35832 ft 413 kts 306°
2026-04-29 15:05 32.92525 67.23528 35857 ft 414 kts 306°
2026-04-29 15:05 32.96206 67.18258 35859 ft 413 kts 306°
2026-04-29 15:06 32.99871 67.13002 35895 ft 412 kts 306°
2026-04-29 15:06 33.03527 67.07742 35891 ft 412 kts 306°
2026-04-29 15:07 33.07185 67.02469 35916 ft 414 kts 306°
2026-04-29 15:07 33.10861 66.97164 35904 ft 415 kts 306°
2026-04-29 15:08 33.14537 66.91859 35910 ft 415 kts 306°
2026-04-29 15:08 33.18191 66.86573 35904 ft 415 kts 306°
2026-04-29 15:09 33.21853 66.81267 35907 ft 413 kts 306°
2026-04-29 15:09 33.25507 66.75972 35907 ft 413 kts 306°
2026-04-29 15:10 33.29175 66.70641 35891 ft 415 kts 306°
2026-04-29 15:10 33.32837 66.65304 35894 ft 417 kts 306°
2026-04-29 15:11 33.36515 66.59946 35861 ft 416 kts 306°
2026-04-29 15:11 33.40156 66.54639 35852 ft 414 kts 306°
2026-04-29 15:12 33.43795 66.49323 35865 ft 412 kts 306°
2026-04-29 15:12 33.47446 66.43975 35837 ft 416 kts 306°
2026-04-29 15:13 33.51111 66.38581 35843 ft 417 kts 306°
2026-04-29 15:13 33.54774 66.33175 35847 ft 418 kts 305°
2026-04-29 15:14 33.58434 66.27766 35846 ft 418 kts 305°
2026-04-29 15:14 33.62086 66.22365 35852 ft 415 kts 305°
2026-04-29 15:15 33.65720 66.16981 35863 ft 416 kts 305°
2026-04-29 15:15 33.69361 66.11576 35883 ft 416 kts 305°
2026-04-29 15:16 33.72984 66.06214 35862 ft 414 kts 305°
2026-04-29 15:16 33.76615 66.00809 35893 ft 415 kts 305°
2026-04-29 15:17 33.80246 65.95388 35907 ft 416 kts 305°
2026-04-29 15:17 33.83886 65.89954 35915 ft 417 kts 305°
2026-04-29 15:18 33.87518 65.84526 35925 ft 416 kts 305°
2026-04-29 15:18 33.91144 65.79093 35925 ft 416 kts 305°
2026-04-29 15:19 33.94749 65.73689 35930 ft 416 kts 305°
2026-04-29 15:19 33.98369 65.68258 35942 ft 415 kts 305°
2026-04-29 15:20 34.01377 65.63736 35943 ft 416 kts 305°
2026-04-29 15:20 34.04997 65.58291 35958 ft 415 kts 304°
2026-04-29 15:21 34.08604 65.52859 35960 ft 414 kts 304°
2026-04-29 15:21 34.12211 65.47429 35973 ft 414 kts 304°
2026-04-29 15:22 34.15809 65.41998 35973 ft 414 kts 304°
2026-04-29 15:22 34.19386 65.36590 35986 ft 415 kts 304°
2026-04-29 15:23 34.23002 65.31118 35984 ft 417 kts 304°
2026-04-29 15:23 34.26626 65.25630 35991 ft 416 kts 304°
2026-04-29 15:24 34.30231 65.20163 35992 ft 415 kts 304°
2026-04-29 15:24 34.33830 65.14695 36003 ft 415 kts 304°
2026-04-29 15:25 34.37435 65.09212 36012 ft 417 kts 304°
2026-04-29 15:25 34.41055 65.03687 36011 ft 419 kts 304°
2026-04-29 15:26 34.44653 64.98192 36012 ft 419 kts 304°
2026-04-29 15:26 34.48268 64.92667 36021 ft 417 kts 304°
2026-04-29 15:27 34.51866 64.87165 36023 ft 415 kts 304°
2026-04-29 15:27 34.55448 64.81655 36035 ft 417 kts 304°
2026-04-29 15:28 34.59047 64.76102 36028 ft 419 kts 304°
2026-04-29 15:28 34.62655 64.70533 36033 ft 419 kts 304°
2026-04-29 15:29 34.66241 64.64994 36039 ft 419 kts 304°
2026-04-29 15:30 34.73451 64.53833 36044 ft 421 kts 304°
2026-04-29 15:30 34.77068 64.48219 36038 ft 421 kts 304°
2026-04-29 15:31 34.80683 64.42597 36031 ft 422 kts 304°
2026-04-29 15:31 34.84278 64.36997 36024 ft 422 kts 304°
2026-04-29 15:32 34.87893 64.31362 36027 ft 421 kts 304°
2026-04-29 15:32 34.91499 64.25730 36007 ft 422 kts 303°
2026-04-29 15:33 34.95109 64.20089 35992 ft 422 kts 304°
2026-04-29 15:33 34.98709 64.14439 35996 ft 422 kts 303°
2026-04-29 15:34 35.02291 64.08817 35986 ft 422 kts 304°
2026-04-29 15:34 35.05901 64.03145 35984 ft 423 kts 303°
2026-04-29 15:35 35.09509 63.97456 35969 ft 424 kts 303°
2026-04-29 15:35 35.13118 63.91766 35967 ft 423 kts 303°
2026-04-29 15:36 35.16703 63.86097 35956 ft 423 kts 303°
2026-04-29 15:36 35.20303 63.80400 35957 ft 423 kts 303°
2026-04-29 15:37 35.23904 63.74697 35959 ft 424 kts 303°
2026-04-29 15:37 35.27514 63.68971 35950 ft 424 kts 303°
2026-04-29 15:38 35.31112 63.63257 35938 ft 424 kts 303°
2026-04-29 15:38 35.34699 63.57584 35937 ft 425 kts 303°
2026-04-29 15:39 35.38321 63.51843 35948 ft 424 kts 303°
2026-04-29 15:39 35.41937 63.46097 35915 ft 426 kts 303°
2026-04-29 15:40 35.45565 63.40323 35913 ft 426 kts 303°
2026-04-29 15:40 35.49179 63.34568 35900 ft 424 kts 303°
2026-04-29 15:41 35.52754 63.28863 35905 ft 424 kts 303°
2026-04-29 15:41 35.56355 63.23107 35902 ft 425 kts 303°
2026-04-29 15:42 35.60324 63.17625 35895 ft 432 kts 310°
2026-04-29 15:42 35.64630 63.12433 35892 ft 434 kts 311°
2026-04-29 15:43 35.68975 63.07310 35891 ft 433 kts 311°
2026-04-29 15:43 35.73322 63.02182 35891 ft 432 kts 310°
2026-04-29 15:44 35.77646 62.97051 35890 ft 431 kts 310°
2026-04-29 15:44 35.81931 62.91949 35889 ft 431 kts 310°
2026-04-29 15:45 35.86250 62.86798 35889 ft 431 kts 310°
2026-04-29 15:45 35.90563 62.81648 35896 ft 432 kts 310°
2026-04-29 15:46 35.94886 62.76476 35881 ft 433 kts 310°
2026-04-29 15:46 35.99209 62.71297 35877 ft 433 kts 310°
2026-04-29 15:47 36.03525 62.66119 35892 ft 433 kts 310°
2026-04-29 15:47 36.07845 62.60927 35888 ft 433 kts 310°
2026-04-29 15:48 36.12175 62.55714 35887 ft 435 kts 310°
2026-04-29 15:48 36.16479 62.50525 35892 ft 435 kts 310°
2026-04-29 15:49 36.20807 62.45299 35892 ft 433 kts 310°
2026-04-29 15:49 36.25121 62.40081 35891 ft 434 kts 310°
2026-04-29 15:50 36.29445 62.34841 35891 ft 436 kts 310°
2026-04-29 15:50 36.33783 62.29575 35885 ft 436 kts 310°
2026-04-29 15:51 36.38127 62.24296 35886 ft 436 kts 310°
2026-04-29 15:51 36.42434 62.19053 35888 ft 436 kts 310°
2026-04-29 15:52 36.46775 62.13758 35881 ft 437 kts 310°
2026-04-29 15:52 36.51116 62.08454 35878 ft 438 kts 310°
2026-04-29 15:53 36.55460 62.03139 35877 ft 438 kts 310°
2026-04-29 15:53 36.59799 61.97820 35876 ft 438 kts 310°
2026-04-29 15:54 36.64148 61.92480 35872 ft 439 kts 310°
2026-04-29 15:54 36.68467 61.87170 35873 ft 439 kts 310°
2026-04-29 15:55 36.72810 61.81821 35874 ft 438 kts 310°
2026-04-29 15:55 36.77152 61.76461 35868 ft 440 kts 310°
2026-04-29 15:56 36.81508 61.71077 35867 ft 441 kts 310°
2026-04-29 15:56 36.85866 61.65681 35867 ft 441 kts 310°
2026-04-29 15:57 36.90218 61.60287 35886 ft 441 kts 310°
2026-04-29 15:57 36.94587 61.54864 35864 ft 444 kts 310°
2026-04-29 15:58 36.98968 61.49416 35867 ft 444 kts 310°
2026-04-29 15:58 37.03351 61.43957 35866 ft 444 kts 310°
2026-04-29 15:59 37.07710 61.38520 35871 ft 445 kts 310°
2026-04-29 15:59 37.12110 61.33021 35868 ft 446 kts 310°
2026-04-29 16:00 37.16476 61.27555 35871 ft 446 kts 310°
2026-04-29 16:00 37.20862 61.22056 35873 ft 446 kts 310°
2026-04-29 16:01 37.25254 61.16545 35873 ft 447 kts 310°
2026-04-29 16:01 37.29628 61.11025 35869 ft 448 kts 310°
2026-04-29 16:02 37.34024 61.05469 35872 ft 448 kts 310°
2026-04-29 16:02 37.38419 60.99911 35869 ft 447 kts 310°
2026-04-29 16:03 37.42779 60.94387 35869 ft 447 kts 310°
2026-04-29 16:03 37.47157 60.88832 35866 ft 447 kts 310°
2026-04-29 16:04 37.51540 60.83259 35873 ft 447 kts 310°
2026-04-29 16:04 37.55918 60.77683 35874 ft 448 kts 310°
2026-04-29 16:05 37.60310 60.72077 35866 ft 449 kts 310°
2026-04-29 16:05 37.64672 60.66505 35871 ft 449 kts 310°
2026-04-29 16:06 37.69051 60.60899 35890 ft 448 kts 310°
2026-04-29 16:06 37.73444 60.55263 35866 ft 451 kts 310°
2026-04-29 16:07 37.77087 60.50545 35868 ft 451 kts 309°
2026-04-29 16:07 37.81334 60.44724 35878 ft 450 kts 308°
2026-04-29 16:08 37.85541 60.38869 35877 ft 449 kts 308°
2026-04-29 16:08 37.89781 60.33000 35869 ft 451 kts 308°
2026-04-29 16:09 37.94008 60.27174 35875 ft 452 kts 308°
2026-04-29 16:09 37.98259 60.21314 35876 ft 452 kts 308°
2026-04-29 16:10 38.02522 60.15444 35879 ft 453 kts 308°
2026-04-29 16:10 38.06809 60.09580 35878 ft 453 kts 308°
2026-04-29 16:11 38.11076 60.03739 35879 ft 453 kts 308°
2026-04-29 16:11 38.15357 59.97863 35886 ft 454 kts 308°
2026-04-29 16:12 38.19659 59.91944 35880 ft 455 kts 308°
2026-04-29 16:12 38.23935 59.86050 35883 ft 455 kts 308°
2026-04-29 16:13 38.28224 59.80128 35887 ft 455 kts 308°
2026-04-29 16:13 38.32516 59.74189 35888 ft 457 kts 308°
2026-04-29 16:14 38.36821 59.68221 35887 ft 457 kts 308°
2026-04-29 16:14 38.41130 59.62237 35886 ft 457 kts 308°
2026-04-29 16:15 38.45430 59.56254 35895 ft 458 kts 308°
2026-04-29 16:15 38.49740 59.50245 35897 ft 459 kts 308°
2026-04-29 16:16 38.54052 59.44223 35900 ft 459 kts 308°
2026-04-29 16:16 38.58302 59.38145 35907 ft 457 kts 304°
2026-04-29 16:17 38.61609 59.31315 35892 ft 454 kts 295°
2026-04-29 16:17 38.64539 59.24123 35900 ft 452 kts 293°
2026-04-29 16:18 38.67347 59.16985 35902 ft 452 kts 293°
2026-04-29 16:18 38.70172 59.09800 35907 ft 452 kts 293°
2026-04-29 16:19 38.73015 59.02595 35907 ft 454 kts 293°
2026-04-29 16:19 38.75864 58.95379 35905 ft 453 kts 293°
2026-04-29 16:20 38.78705 58.88171 35910 ft 453 kts 293°
2026-04-29 16:20 38.81542 58.80952 35910 ft 453 kts 293°
2026-04-29 16:21 38.84374 58.73727 35913 ft 453 kts 293°
2026-04-29 16:21 38.87180 58.66554 35913 ft 453 kts 293°
2026-04-29 16:22 38.89632 58.59146 35915 ft 450 kts 287°
2026-04-29 16:22 38.91750 58.51590 35931 ft 449 kts 286°
2026-04-29 16:23 38.93812 58.43985 35923 ft 451 kts 285°
2026-04-29 16:23 38.95870 58.36369 35925 ft 451 kts 285°
2026-04-29 16:24 38.97917 58.28802 35925 ft 451 kts 285°
2026-04-29 16:24 38.99974 58.21190 35933 ft 451 kts 285°
2026-04-29 16:25 39.02027 58.13575 35938 ft 450 kts 285°
2026-04-29 16:25 39.04077 58.05946 35935 ft 451 kts 285°
2026-04-29 16:26 39.06123 57.98307 35939 ft 451 kts 285°
2026-04-29 16:26 39.08154 57.90704 35944 ft 451 kts 285°
2026-04-29 16:27 39.10187 57.83071 35958 ft 450 kts 285°
2026-04-29 16:27 39.12214 57.75431 35950 ft 452 kts 285°
2026-04-29 16:28 39.14243 57.67761 35955 ft 452 kts 285°
2026-04-29 16:28 39.16270 57.60084 35954 ft 452 kts 285°
2026-04-29 16:29 39.17947 57.53712 35960 ft 451 kts 285°
2026-04-29 16:29 39.20294 57.44764 35966 ft 452 kts 285°
2026-04-29 16:30 39.22308 57.37056 35970 ft 454 kts 285°
2026-04-29 16:30 39.24305 57.29395 35971 ft 452 kts 285°
2026-04-29 16:31 39.26304 57.21703 35976 ft 452 kts 285°
2026-04-29 16:31 39.28298 57.14002 35986 ft 453 kts 284°
2026-04-29 16:32 39.30298 57.06256 35983 ft 454 kts 284°
2026-04-29 16:32 39.32288 56.98523 35984 ft 454 kts 284°
2026-04-29 16:33 39.35266 56.86909 35993 ft 454 kts 284°
2026-04-29 16:33 39.37231 56.79214 35999 ft 454 kts 284°
2026-04-29 16:34 39.39076 56.71401 35999 ft 454 kts 282°
2026-04-29 16:34 39.40840 56.63551 36004 ft 454 kts 282°
2026-04-29 16:35 39.42610 56.55720 36012 ft 454 kts 282°
2026-04-29 16:35 39.44397 56.47882 36013 ft 454 kts 282°
2026-04-29 16:36 39.46184 56.40045 36010 ft 455 kts 282°
2026-04-29 16:36 39.47962 56.32223 36011 ft 455 kts 282°
2026-04-29 16:37 39.49746 56.24349 36015 ft 455 kts 282°
2026-04-29 16:37 39.51220 56.17819 36012 ft 455 kts 282°
2026-04-29 16:38 39.53287 56.08625 36013 ft 455 kts 282°
2026-04-29 16:38 39.55043 56.00783 36011 ft 456 kts 282°
2026-04-29 16:39 39.56807 55.92883 36014 ft 456 kts 282°
2026-04-29 16:39 39.58575 55.84978 36014 ft 456 kts 282°
2026-04-29 16:40 39.60345 55.77081 36012 ft 457 kts 282°
2026-04-29 16:40 39.62117 55.69149 36022 ft 457 kts 282°
2026-04-29 16:41 39.63880 55.61228 36013 ft 457 kts 282°
2026-04-29 16:41 39.65630 55.53334 36020 ft 457 kts 282°
2026-04-29 16:42 39.67382 55.45400 36014 ft 457 kts 282°
2026-04-29 16:42 39.69130 55.37458 36019 ft 457 kts 281°
2026-04-29 16:43 39.70877 55.29506 36017 ft 457 kts 281°
2026-04-29 16:43 39.72603 55.21559 36018 ft 457 kts 281°
2026-04-29 16:44 39.74311 55.13662 36022 ft 456 kts 281°
2026-04-29 16:44 39.76025 55.05721 36021 ft 456 kts 281°
2026-04-29 16:45 39.77733 54.97783 36023 ft 456 kts 281°
2026-04-29 16:45 39.79438 54.89836 36024 ft 456 kts 281°
2026-04-29 16:46 39.81139 54.81876 36025 ft 456 kts 281°
2026-04-29 16:46 39.82825 54.73971 36028 ft 456 kts 281°
2026-04-29 16:47 39.84530 54.65997 36028 ft 457 kts 281°
2026-04-29 16:47 39.86223 54.58041 36036 ft 456 kts 281°
2026-04-29 16:48 39.87909 54.50092 36036 ft 455 kts 281°
2026-04-29 16:48 39.89582 54.42186 36048 ft 455 kts 281°
2026-04-29 16:49 39.91249 54.34222 36048 ft 456 kts 281°
2026-04-29 16:49 39.92902 54.26255 36043 ft 456 kts 281°
2026-04-29 16:50 39.94555 54.18273 36040 ft 456 kts 281°
2026-04-29 16:50 39.96203 54.10294 36047 ft 456 kts 281°
2026-04-29 16:51 39.97847 54.02308 36041 ft 456 kts 281°
2026-04-29 16:51 39.99484 53.94326 36046 ft 455 kts 281°
2026-04-29 16:52 40.01115 53.86343 36042 ft 455 kts 281°
2026-04-29 16:52 40.02733 53.78393 36042 ft 455 kts 281°
2026-04-29 16:53 40.04356 53.70387 36051 ft 455 kts 280°
2026-04-29 16:53 40.05971 53.62389 36048 ft 455 kts 280°
2026-04-29 16:54 40.07310 53.55734 36047 ft 456 kts 280°
2026-04-29 16:54 40.09174 53.46434 36059 ft 455 kts 280°
2026-04-29 16:55 40.10511 53.39743 36064 ft 454 kts 280°
2026-04-29 16:55 40.12098 53.31763 36053 ft 454 kts 280°
2026-04-29 16:56 40.13669 53.23834 36060 ft 454 kts 280°
2026-04-29 16:56 40.15245 53.15848 36058 ft 454 kts 280°
2026-04-29 16:57 40.16816 53.07854 36061 ft 454 kts 280°
2026-04-29 16:57 40.18383 52.99855 36065 ft 454 kts 280°
2026-04-29 16:58 40.19947 52.91838 36069 ft 454 kts 280°
2026-04-29 16:58 40.21492 52.83888 36067 ft 453 kts 280°
2026-04-29 16:59 40.23037 52.75903 36067 ft 452 kts 279°
2026-04-29 16:59 40.24577 52.67911 36081 ft 452 kts 279°
2026-04-29 17:00 40.26113 52.59907 36069 ft 453 kts 279°
2026-04-29 17:00 40.27650 52.51903 36072 ft 453 kts 279°
2026-04-29 17:01 40.29170 52.43940 36070 ft 453 kts 279°
2026-04-29 17:01 40.30695 52.35921 36069 ft 453 kts 279°
2026-04-29 17:02 40.32215 52.27898 36072 ft 452 kts 279°
2026-04-29 17:02 40.33725 52.19896 36072 ft 452 kts 279°
2026-04-29 17:03 40.35229 52.11893 36075 ft 452 kts 279°
2026-04-29 17:03 40.36717 52.03941 36075 ft 452 kts 279°
2026-04-29 17:04 40.38211 51.95924 36075 ft 452 kts 279°
2026-04-29 17:04 40.39697 51.87916 36080 ft 452 kts 279°
2026-04-29 17:05 40.41179 51.79899 36083 ft 452 kts 279°
2026-04-29 17:05 40.42656 51.71877 36084 ft 451 kts 279°
2026-04-29 17:06 40.44116 51.63913 36105 ft 451 kts 279°
2026-04-29 17:06 40.45582 51.55883 36090 ft 452 kts 279°
2026-04-29 17:07 40.47046 51.47860 36091 ft 452 kts 280°
2026-04-29 17:07 40.48656 51.39856 36085 ft 453 kts 281°
2026-04-29 17:08 40.50320 51.31876 36096 ft 453 kts 281°
2026-04-29 17:08 40.51964 51.23881 36101 ft 453 kts 281°
2026-04-29 17:09 40.53575 51.15922 36108 ft 454 kts 281°
2026-04-29 17:09 40.55188 51.07898 36100 ft 453 kts 281°
2026-04-29 17:10 40.56793 50.99877 36103 ft 453 kts 281°
2026-04-29 17:10 40.58393 50.91856 36115 ft 453 kts 281°
2026-04-29 17:11 40.59980 50.83868 36102 ft 453 kts 281°
2026-04-29 17:11 40.61571 50.75832 36102 ft 453 kts 281°
2026-04-29 17:12 40.63153 50.67806 36099 ft 453 kts 281°
2026-04-29 17:12 40.64468 50.61116 36103 ft 453 kts 280°
2026-04-29 17:13 40.66309 50.51704 36105 ft 454 kts 281°
2026-04-29 17:13 40.67869 50.43697 36104 ft 454 kts 280°
2026-04-29 17:14 40.69436 50.35638 36109 ft 454 kts 280°
2026-04-29 17:14 40.70986 50.27581 36110 ft 454 kts 280°
2026-04-29 17:15 40.72534 50.19505 36112 ft 454 kts 280°
2026-04-29 17:15 40.74070 50.11465 36115 ft 455 kts 280°
2026-04-29 17:16 40.75611 50.03372 36116 ft 455 kts 280°
2026-04-29 17:16 40.77149 49.95269 36120 ft 455 kts 280°
2026-04-29 17:17 40.78678 49.87171 36123 ft 455 kts 280°
2026-04-29 17:17 40.80195 49.79106 36124 ft 456 kts 280°
2026-04-29 17:18 40.81716 49.70987 36128 ft 456 kts 280°
2026-04-29 17:18 40.83233 49.62854 36131 ft 456 kts 280°
2026-04-29 17:19 40.84744 49.54719 36132 ft 456 kts 280°
2026-04-29 17:19 40.86246 49.46594 36134 ft 456 kts 280°
2026-04-29 17:20 40.87747 49.38449 36141 ft 456 kts 280°
2026-04-29 17:20 40.89230 49.30307 36141 ft 455 kts 279°
2026-04-29 17:21 40.90616 49.22142 36145 ft 455 kts 279°
2026-04-29 17:21 40.91966 49.14024 36143 ft 455 kts 279°
2026-04-29 17:22 40.93333 49.05848 36141 ft 455 kts 279°
2026-04-29 17:22 40.94705 48.97663 36141 ft 455 kts 279°
2026-04-29 17:23 40.96073 48.89484 36135 ft 455 kts 279°
2026-04-29 17:23 40.97437 48.81285 36151 ft 456 kts 279°
2026-04-29 17:24 40.98794 48.73091 36137 ft 456 kts 279°
2026-04-29 17:24 41.00144 48.64896 36138 ft 456 kts 279°
2026-04-29 17:25 41.01489 48.56693 36132 ft 455 kts 279°
2026-04-29 17:25 41.02827 48.48494 36124 ft 454 kts 279°
2026-04-29 17:26 41.04149 48.40352 36129 ft 455 kts 279°
2026-04-29 17:26 41.05474 48.32161 36116 ft 454 kts 279°
2026-04-29 17:27 41.06794 48.23961 36116 ft 455 kts 279°
2026-04-29 17:27 41.08106 48.15762 36112 ft 454 kts 278°
2026-04-29 17:28 41.09411 48.07566 36103 ft 454 kts 279°
2026-04-29 17:28 41.10705 47.99408 36098 ft 455 kts 279°
2026-04-29 17:29 41.12002 47.91205 36092 ft 454 kts 279°
2026-04-29 17:29 41.13073 47.84390 36089 ft 454 kts 278°
2026-04-29 17:30 41.14572 47.74802 36088 ft 453 kts 278°
2026-04-29 17:30 41.15849 47.66596 36086 ft 453 kts 279°
2026-04-29 17:31 41.17116 47.58412 36100 ft 453 kts 278°
2026-04-29 17:31 41.18371 47.50262 36101 ft 453 kts 278°
2026-04-29 17:32 41.19626 47.42067 36104 ft 453 kts 278°
2026-04-29 17:32 41.20876 47.33872 36130 ft 453 kts 278°
2026-04-29 17:33 41.22123 47.25668 36122 ft 452 kts 278°
2026-04-29 17:33 41.23360 47.17473 36125 ft 452 kts 278°
2026-04-29 17:34 41.24592 47.09275 36135 ft 452 kts 278°
2026-04-29 17:34 41.25808 47.01137 36140 ft 452 kts 278°
2026-04-29 17:35 41.27633 46.88854 36146 ft 451 kts 278°
2026-04-29 17:36 41.28843 46.80653 36142 ft 451 kts 278°
2026-04-29 17:36 41.30046 46.72453 36152 ft 451 kts 278°
2026-04-29 17:37 41.31202 46.64268 36146 ft 450 kts 278°
2026-04-29 17:37 41.32338 46.56071 36146 ft 450 kts 277°
2026-04-29 17:38 41.33470 46.47897 36147 ft 449 kts 277°
2026-04-29 17:38 41.34594 46.39767 36143 ft 449 kts 277°
2026-04-29 17:39 41.35720 46.31596 36137 ft 449 kts 277°
2026-04-29 17:39 41.36844 46.23391 36130 ft 449 kts 277°
2026-04-29 17:40 41.37770 46.16593 36132 ft 448 kts 277°
2026-04-29 17:40 41.39058 46.07092 36122 ft 447 kts 277°
2026-04-29 17:41 41.40154 45.98947 36119 ft 446 kts 277°
2026-04-29 17:41 41.41068 45.92128 36117 ft 446 kts 277°
2026-04-29 17:42 41.42145 45.84043 36113 ft 446 kts 277°
2026-04-29 17:42 41.43225 45.75902 36113 ft 445 kts 277°
2026-04-29 17:43 41.44296 45.67779 36107 ft 444 kts 277°
2026-04-29 17:43 41.45359 45.59660 36098 ft 444 kts 277°
2026-04-29 17:44 41.46417 45.51543 36100 ft 444 kts 277°
2026-04-29 17:44 41.47470 45.43417 36103 ft 444 kts 276°
2026-04-29 17:45 41.48507 45.35367 36097 ft 442 kts 276°
2026-04-29 17:45 41.49273 45.27195 36093 ft 441 kts 272°
2026-04-29 17:46 41.49849 45.19111 36097 ft 441 kts 272°
2026-04-29 17:46 41.50453 45.10969 36099 ft 441 kts 273°
2026-04-29 17:47 41.51093 45.02833 36105 ft 441 kts 273°
2026-04-29 17:47 41.51744 44.94693 36104 ft 440 kts 273°
2026-04-29 17:48 41.52390 44.86554 36101 ft 440 kts 273°
2026-04-29 17:48 41.53028 44.78419 36101 ft 440 kts 273°
2026-04-29 17:49 41.53655 44.70332 36104 ft 440 kts 273°
2026-04-29 17:49 41.54281 44.62190 36103 ft 440 kts 273°
2026-04-29 17:50 41.54900 44.54057 36103 ft 440 kts 272°
2026-04-29 17:50 41.55514 44.45908 36104 ft 440 kts 272°
2026-04-29 17:51 41.56119 44.37806 36108 ft 440 kts 272°
2026-04-29 17:51 41.56722 44.29662 36108 ft 440 kts 272°
2026-04-29 17:52 41.56904 44.21525 36112 ft 436 kts 262°
2026-04-29 17:52 41.56180 44.13470 36108 ft 437 kts 260°
2026-04-29 17:53 41.55290 44.05446 36107 ft 437 kts 259°
2026-04-29 17:53 41.54378 43.97484 36111 ft 437 kts 259°
2026-04-29 17:54 41.53467 43.89459 36114 ft 437 kts 259°
2026-04-29 17:54 41.52563 43.81446 36111 ft 436 kts 259°
2026-04-29 17:55 41.51657 43.73437 36117 ft 436 kts 259°
2026-04-29 17:55 41.50743 43.65425 36116 ft 436 kts 259°
2026-04-29 17:56 41.49825 43.57423 36114 ft 437 kts 259°
2026-04-29 17:56 41.48899 43.49410 36119 ft 437 kts 259°
2026-04-29 17:57 41.47973 43.41445 36121 ft 437 kts 259°
2026-04-29 17:57 41.47037 43.33441 36122 ft 437 kts 259°
2026-04-29 17:58 41.46094 43.25435 36124 ft 437 kts 259°
2026-04-29 17:58 41.45146 43.17425 36123 ft 437 kts 259°
2026-04-29 17:59 41.44192 43.09419 36113 ft 437 kts 259°
2026-04-29 17:59 41.43231 43.01405 36122 ft 437 kts 259°
2026-04-29 18:00 41.42267 42.93424 36122 ft 435 kts 259°
2026-04-29 18:00 41.41301 42.85461 36119 ft 435 kts 259°
2026-04-29 18:01 41.40329 42.77490 36127 ft 435 kts 259°
2026-04-29 18:01 41.39358 42.69576 36125 ft 435 kts 259°
2026-04-29 18:02 41.38375 42.61621 36128 ft 435 kts 259°
2026-04-29 18:02 41.37389 42.53682 36150 ft 435 kts 259°
2026-04-29 18:03 41.36395 42.45726 36163 ft 435 kts 259°
2026-04-29 18:03 41.35404 42.37840 36152 ft 434 kts 259°
2026-04-29 18:04 41.34402 42.29909 36168 ft 434 kts 259°
2026-04-29 18:04 41.33393 42.21978 36164 ft 434 kts 259°
2026-04-29 18:05 41.32382 42.14061 36169 ft 434 kts 259°
2026-04-29 18:05 41.31364 42.06139 36181 ft 434 kts 259°
2026-04-29 18:06 41.30349 41.98289 36183 ft 434 kts 259°
2026-04-29 18:06 41.29319 41.90375 36179 ft 434 kts 259°
2026-04-29 18:07 41.28274 41.82472 36184 ft 434 kts 259°
2026-04-29 18:07 41.27224 41.74582 36181 ft 433 kts 259°
2026-04-29 18:08 41.26172 41.66704 36181 ft 433 kts 259°
2026-04-29 18:08 41.25114 41.58821 36182 ft 433 kts 259°
2026-04-29 18:09 41.24061 41.51005 36166 ft 432 kts 259°
2026-04-29 18:09 41.22996 41.43136 36169 ft 432 kts 259°
2026-04-29 18:10 41.21924 41.35268 36169 ft 432 kts 259°
2026-04-29 18:10 41.20847 41.27408 36176 ft 432 kts 259°
2026-04-29 18:11 41.19766 41.19555 36170 ft 433 kts 259°
2026-04-29 18:11 41.18685 41.11749 36181 ft 433 kts 259°
2026-04-29 18:12 41.17591 41.03890 36184 ft 433 kts 259°
2026-04-29 18:12 41.16493 40.96040 36181 ft 433 kts 259°
2026-04-29 18:13 41.15387 40.88176 36186 ft 432 kts 259°
2026-04-29 18:13 41.14278 40.80333 36190 ft 433 kts 259°
2026-04-29 18:14 41.13164 40.72486 36187 ft 433 kts 259°
2026-04-29 18:14 41.12041 40.64623 36197 ft 433 kts 259°
2026-04-29 18:15 41.10922 40.56822 36195 ft 433 kts 259°
2026-04-29 18:15 41.09792 40.48983 36194 ft 433 kts 259°
2026-04-29 18:16 41.08655 40.41142 36194 ft 433 kts 259°
2026-04-29 18:16 41.07512 40.33298 36195 ft 433 kts 259°
2026-04-29 18:17 41.06365 40.25460 36193 ft 433 kts 259°
2026-04-29 18:17 41.05211 40.17621 36198 ft 433 kts 259°
2026-04-29 18:18 41.04061 40.09845 36211 ft 433 kts 259°
2026-04-29 18:18 41.02900 40.02031 36193 ft 432 kts 260°
2026-04-29 18:19 41.01732 39.94213 36211 ft 432 kts 259°
2026-04-29 18:19 41.00562 39.86412 36211 ft 432 kts 259°
2026-04-29 18:20 40.99855 39.78590 36210 ft 431 kts 271°
2026-04-29 18:20 41.00340 39.70686 36211 ft 431 kts 276°
2026-04-29 18:21 41.01091 39.62803 36209 ft 431 kts 277°
2026-04-29 18:21 41.01877 39.54926 36207 ft 430 kts 277°
2026-04-29 18:22 41.02637 39.47081 36206 ft 430 kts 277°
2026-04-29 18:22 41.03372 39.39278 36205 ft 429 kts 277°
2026-04-29 18:23 41.04107 39.31374 36198 ft 430 kts 277°
2026-04-29 18:23 41.04831 39.23515 36197 ft 430 kts 276°
2026-04-29 18:24 41.05547 39.15706 36200 ft 429 kts 276°
2026-04-29 18:24 41.06269 39.07841 36194 ft 430 kts 277°
2026-04-29 18:25 41.06997 38.99978 36194 ft 430 kts 277°
2026-04-29 18:25 41.07719 38.92117 36195 ft 430 kts 276°
2026-04-29 18:26 41.08314 38.85582 36198 ft 429 kts 277°
2026-04-29 18:26 41.09139 38.76448 36192 ft 427 kts 277°
2026-04-29 18:27 41.09723 38.69934 36189 ft 427 kts 277°
2026-04-29 18:27 41.10410 38.62114 36189 ft 427 kts 277°
2026-04-29 18:28 41.11080 38.54283 36187 ft 427 kts 276°
2026-04-29 18:28 41.11729 38.46445 36189 ft 426 kts 277°
2026-04-29 18:29 41.12367 38.38689 36192 ft 423 kts 277°
2026-04-29 18:29 41.13006 38.30932 36197 ft 423 kts 277°
2026-04-29 18:30 41.13642 38.23169 36200 ft 423 kts 277°
2026-04-29 18:30 41.14279 38.15392 36186 ft 423 kts 277°
2026-04-29 18:31 41.14910 38.07631 36204 ft 421 kts 277°
2026-04-29 18:31 41.15527 37.99964 36204 ft 420 kts 277°
2026-04-29 18:32 41.16142 37.92259 36203 ft 420 kts 277°
2026-04-29 18:32 41.17090 37.80698 36199 ft 420 kts 277°
2026-04-29 18:33 41.17751 37.72994 36198 ft 419 kts 277°
2026-04-29 18:33 41.18404 37.65316 36195 ft 418 kts 277°
2026-04-29 18:34 41.18924 37.58943 36197 ft 418 kts 276°
2026-04-29 18:34 41.19423 37.50002 36197 ft 418 kts 276°
2026-04-29 18:35 41.19962 37.42315 36198 ft 418 kts 277°
2026-04-29 18:35 41.20544 37.34625 36197 ft 418 kts 277°
2026-04-29 18:36 41.21118 37.26969 36196 ft 416 kts 277°
2026-04-29 18:36 41.21685 37.19326 36195 ft 416 kts 277°
2026-04-29 18:37 41.22280 37.11689 36195 ft 416 kts 277°
2026-04-29 18:37 41.22878 37.04041 36197 ft 416 kts 277°
2026-04-29 18:38 41.23463 36.96444 36191 ft 415 kts 277°
2026-04-29 18:38 41.24043 36.88799 36198 ft 414 kts 277°
2026-04-29 18:39 41.24616 36.81185 36211 ft 414 kts 277°
2026-04-29 18:39 41.25179 36.73620 36208 ft 415 kts 277°
2026-04-29 18:40 41.25743 36.65984 36210 ft 415 kts 277°
2026-04-29 18:40 41.26310 36.58351 36212 ft 415 kts 278°
2026-04-29 18:41 41.29382 36.43646 36189 ft 413 kts 288°
2026-04-29 18:42 41.31213 36.36537 36186 ft 413 kts 288°
2026-04-29 18:42 41.33106 36.29170 36179 ft 413 kts 288°
2026-04-29 18:43 41.34937 36.21969 36194 ft 412 kts 288°
2026-04-29 18:43 41.36762 36.14738 36195 ft 412 kts 288°
2026-04-29 18:44 41.38583 36.07498 36169 ft 412 kts 288°
2026-04-29 18:44 41.40399 36.00252 36163 ft 412 kts 288°
2026-04-29 18:45 41.42213 35.92998 36165 ft 412 kts 288°
2026-04-29 18:45 41.44011 35.85792 36156 ft 412 kts 288°
2026-04-29 18:46 41.45813 35.78538 36163 ft 412 kts 288°
2026-04-29 18:46 41.47613 35.71277 36162 ft 412 kts 288°
2026-04-29 18:47 41.49406 35.64016 36157 ft 412 kts 288°
2026-04-29 18:47 41.51196 35.56751 36157 ft 412 kts 288°
2026-04-29 18:48 41.52981 35.49478 36156 ft 413 kts 288°
2026-04-29 18:48 41.54752 35.42240 36179 ft 413 kts 287°
2026-04-29 18:49 41.56529 35.34961 36169 ft 412 kts 287°
2026-04-29 18:49 41.58299 35.27678 36149 ft 412 kts 287°
2026-04-29 18:50 41.60067 35.20384 36170 ft 413 kts 287°
2026-04-29 18:50 41.61832 35.13083 36173 ft 413 kts 287°
2026-04-29 18:51 41.63595 35.05766 36168 ft 413 kts 287°
2026-04-29 18:51 41.65352 34.98452 36170 ft 413 kts 287°
2026-04-29 18:52 41.67101 34.91145 36166 ft 413 kts 287°
2026-04-29 18:52 41.68835 34.83877 36171 ft 412 kts 287°
2026-04-29 18:53 41.70574 34.76563 36178 ft 413 kts 287°
2026-04-29 18:53 41.72307 34.69258 36175 ft 412 kts 287°
2026-04-29 18:54 41.74034 34.61952 36177 ft 412 kts 287°
2026-04-29 18:54 41.75761 34.54624 36177 ft 412 kts 287°
2026-04-29 18:55 41.77472 34.47333 36171 ft 412 kts 287°
2026-04-29 18:55 41.79181 34.40021 36170 ft 410 kts 287°
2026-04-29 18:56 41.80878 34.32748 36170 ft 408 kts 287°
2026-04-29 18:56 41.82565 34.25499 36185 ft 407 kts 287°
2026-04-29 18:57 41.84262 34.18179 36310 ft 413 kts 287°
2026-04-29 18:57 41.85106 34.14528 36446 ft 415 kts 287°
2026-04-29 18:57 41.85962 34.10823 36608 ft 415 kts 287°
2026-04-29 18:58 41.86815 34.07120 36792 ft 416 kts 287°
2026-04-29 18:58 41.87669 34.03408 36941 ft 417 kts 287°
2026-04-29 18:58 41.88525 33.99679 37059 ft 418 kts 287°
2026-04-29 18:58 41.89379 33.95955 37245 ft 418 kts 287°
2026-04-29 18:59 41.90235 33.92215 37440 ft 418 kts 287°
2026-04-29 18:59 41.91090 33.88477 37637 ft 418 kts 287°
2026-04-29 18:59 41.91944 33.84731 37792 ft 419 kts 287°
2026-04-29 18:59 41.92788 33.81027 37958 ft 420 kts 286°
2026-04-29 19:00 41.93641 33.77277 38133 ft 420 kts 286°
2026-04-29 19:00 41.94491 33.73530 38188 ft 418 kts 286°
2026-04-29 19:00 41.96115 33.66148 38183 ft 409 kts 284°
2026-04-29 19:01 41.97522 33.58746 38177 ft 409 kts 284°
2026-04-29 19:01 41.98898 33.51310 38178 ft 410 kts 284°
2026-04-29 19:02 42.00061 33.45137 38177 ft 409 kts 284°
2026-04-29 19:02 42.01712 33.36476 38173 ft 408 kts 284°
2026-04-29 19:03 42.03113 33.29120 38171 ft 408 kts 284°
2026-04-29 19:03 42.03348 33.27885 38223 ft 406 kts 284°